{"data":{"norad_id":68381,"epoch":"2026-05-25T02:42:24.749280Z","epoch_age_seconds":65171,"freshness":"FRESH","line1":"1 68381U 26063B   26145.11278645  .00025913  00000+0  80203-3 0  9990","line2":"2 68381  97.2851 287.6238 0000537  95.4954 264.6350 15.33453648  9600","mean_motion":15.33453648,"eccentricity":5.37e-5,"inclination_deg":97.2851,"raan_deg":287.6238,"arg_perigee_deg":95.4954,"mean_anomaly_deg":264.635,"bstar":0.00080203,"rev_number":960,"period_min":93.905675067395,"perigee_km":465.14993999178,"apogee_km":465.8849484791,"semimajor_km":6843.6544442354,"source":"CELESTRAK","updated_at":"2026-05-25T13:38:21.928237Z"}}